This is the latest recevied weather packets stored in our database for station/object K5GHS-1. If no packets are shown the sender has not sent any weather packets the latest 10 day(s).
| Time | Temp. | Humidity | Pressure | Rain* | Wind** | Luminosity | Snow |
|---|---|---|---|---|---|---|---|
| 1778094922 | 15° C | 81% | 1013 hPa | 0 mm | - | 108 W/m² | - |
| 1778094316 | 15° C | 81% | 1013 hPa | 0 mm | - | 117 W/m² | - |
| 1778094013 | 15° C | 82% | 1012.8 hPa | 0 mm | - | 121 W/m² | - |
| 1778093710 | 14.44° C | 82% | 1012.6 hPa | 0 mm | - | 136 W/m² | - |
| 1778092496 | 14.44° C | 83% | 1011.8 hPa | 0 mm | - | 144 W/m² | - |
| 1778091286 | 14.44° C | 86% | 1011.7 hPa | 0 mm | - | 246 W/m² | - |
| 1778088860 | 12.22° C | 91% | 1012 hPa | 0 mm | - | 113 W/m² | - |
| 1778088254 | 12.22° C | 92% | 1012.2 hPa | 0 mm | - | 118 W/m² | - |
| 1778087347 | 12.22° C | 92% | 1012.2 hPa | 0 mm | - | 94 W/m² | - |
| 1778087042 | 12.22° C | 92% | 1012.5 hPa | 0 mm | - | 75 W/m² | - |
| 1778086741 | 12.22° C | 92% | 1012.7 hPa | 0 mm | - | 49 W/m² | - |
| 1778086439 | 12.22° C | 92% | 1013.2 hPa | 0 mm | - | 55 W/m² | - |
| 1778085524 | 12.22° C | 92% | 1014.1 hPa | 0 mm | - | 43 W/m² | - |
| 1778085218 | 12.22° C | 92% | 1013.7 hPa | 0 mm | - | 41 W/m² | - |
| 1778084309 | 12.22° C | 92% | 1013.1 hPa | 0 mm | - | 97 W/m² | - |
| 1778078027 | 12.22° C | 82% | 1013.1 hPa | 0 mm | - | 39 W/m² | - |
| 1778077423 | 12.22° C | 83% | 1012.7 hPa | 0 mm | - | 46 W/m² | - |
| 1778077121 | 12.22° C | 83% | 1012.4 hPa | 0 mm | - | 71 W/m² | - |
| 1778076819 | 12.22° C | 83% | 1012.3 hPa | 0 mm | - | 59 W/m² | - |
| 1778076517 | 12.22° C | 83% | 1012.4 hPa | 0 mm | - | 50 W/m² | - |
| 1778074697 | 12.22° C | 84% | 1011.9 hPa | 0 mm | - | 45 W/m² | - |
| 1778074394 | 11.67° C | 84% | 1012.1 hPa | 0 mm | - | 40 W/m² | - |
| 1778073788 | 11.67° C | 86% | 1011.6 hPa | 0 mm | - | 21 W/m² | - |
| 1778072575 | 11.67° C | 87% | 1011.4 hPa | 0 mm | - | 12 W/m² | - |
| 1778070762 | 11.67° C | 85% | 1011.3 hPa | 0 mm | - | 4 W/m² | - |
* Rain latest hour (hover to see other rain measurements)
** Current wind speed in m/s (hover to see current wind gust speed)